Preview of NWS' New Version of Forecast
This preview is not operational and should not be used for support decisions.

Regional Weather Roundup (RWR)

Issued by National Weather Service (NWS)

                            
000
ASUS43 KMKX 220259
RWRWI 

WISCONSIN REGIONAL WEATHER ROUNDUP
NATIONAL WEATHER SERVICE MILWAUKEE/SULLIVAN WI
1000 PM CDT SUN APR 21 2019

NOTE: "FAIR" INDICATES FEW OR NO CLOUDS BELOW 12,000 FEET WITH NO
SIGNIFICANT WEATHER AND/OR OBSTRUCTIONS TO VISIBILITY.

WIZ001-002-006>008-014>016-023>028-220400-
NORTHWEST WISCONSIN
  
CITY           SKY/WX    TMP DP  RH WIND       PRES   REMARKS
SUPERIOR ARPT  CLOUDY    37  36  94 E15       30.11S WCI  28          
ASHLAND        LGT RAIN  38  38 100 NE14      30.11R WCI  30          
HAYWARD        LGT RAIN  41  38  89 NE15G23   30.01F                  
SIREN          CLOUDY   N/A N/A N/A NE13G21   30.01R                  
CUMBERLAND     CLOUDY    45  37  76 NE20      29.95S                  
RICE LAKE      CLOUDY    49  42  76 N15       29.96S                  
CHETEK         MOCLDY    52  41  67 NE8G16    29.94R                  
LADYSMITH      MOCLDY    48  38  68 NE16G22   29.96S                  
EAU CLAIRE     NOT AVBL                                               
MENOMONIE      FAIR      55  36  48 N9        29.90R                  
NEW RICHMOND   FAIR      50  40  67 NE16G22   29.93R                  
OSCEOLA        FAIR      49  41  73 N13       29.98R                  
$$
 
WIZ003>005-009-010-017-018-220400-
NORTH CENTRAL WISCONSIN
  
CITY           SKY/WX    TMP DP  RH WIND       PRES   REMARKS
MANITOWISH WTR MOCLDY    38  38 100 NE9       30.05R WCI  32          
ARBOR VITAE    TSTM      44  32  62 NE10G18   30.05R                  
WOODRUFF       TSTM      44  32  62 NE10G18   30.05R                  
RHINELANDER    MOCLDY    49  30  48 NE12G20   30.03R                  
EAGLE RIVER    CLOUDY    44  29  55 NE12G21   30.03S                  
LAND O LAKES   CLOUDY    40  37  90 NE7       30.09R WCI  35          
PHILLIPS       CLOUDY    44  33  65 NE15G23   29.99S                  
TOMAHAWK       FAIR      49  33  54 NE6       29.98R                  
MEDFORD        FAIR      52  37  56 NE12      29.91S                  
MERRILL        FAIR      52  38  57 NE10      29.98R                  
$$
 
WIZ029-030-035-036-043>047-220400-
CENTRAL WISCONSIN
  
CITY           SKY/WX    TMP DP  RH WIND       PRES   REMARKS
WAUSAU         NOT AVBL                                               
MOSINEE        PTCLDY    57  39  51 E12G18    29.93S                  
MARSHFIELD     NOT AVBL                                               
STEVENS POINT  FAIR      57  41  54 E9        29.94S                  
WAUPACA        FAIR      58  43  56 NE5       29.96R                  
WAUTOMA        NOT AVBL                                               
WISC RAPIDS    NOT AVBL                                               
CAMP DOUGLAS   NOT AVBL                                               
$$
 
WIZ011>013-019>022-031-037>040-048>050-220400-
NORTHEAST WISCONSIN
  
CITY           SKY/WX    TMP DP  RH WIND       PRES   REMARKS
ANTIGO         FAIR      51  39  63 E15       29.98R                  
SHAWANO        FAIR      53  39  59 NE12      29.97F                  
OCONTO         FAIR      47  33  59 E8        30.00S                  
STURGEON BAY   NOT AVBL                                               
GREEN BAY      NOT AVBL                                               
MANITOWOC      NOT AVBL                                               
APPLETON       PTCLDY    61  34  36 SE7       29.95R                  
CLINTONVILLE   FAIR      54  36  50 NE8       29.97F                  
OSHKOSH        FAIR      63  43  48 SE9       29.95R                  
$$
 
WIZ032>034-041-042-053>061-220400-
SOUTHWEST WISCONSIN
  
CITY           SKY/WX    TMP DP  RH WIND       PRES   REMARKS
LA CROSSE      NOT AVBL                                               
SPARTA         FAIR      74  44  34 S8        29.89R                  
VIROQUA        FAIR      71  45  39 S10       29.91S                  
BOSCOBEL       FAIR      75  45  34 S8        29.92R                  
PRAIRIE DU CHI FAIR      74  41  30 S9        29.89R                  
PLATTEVILLE    FAIR      66  47  49 SE12      29.94S                  
$$

WIZ056-057-062-063-064-067-068-220400-
SOUTH CENTRAL WISCONSIN
  
CITY           SKY/WX    TMP DP  RH WIND       PRES   REMARKS
REEDSBURG      FAIR      71  45  38 S8        29.93R                  
BARABOO/DELLS  FAIR      70  40  33 S17       29.92S                  
LONE ROCK      NOT AVBL                                               
MINERAL POINT  FAIR      68  45  42 S10       29.95R                  
MADISON        NOT AVBL                                               
MIDDLETON      FAIR      72  40  31 S15       29.95S                  
WATERTOWN      FAIR      66  43  42 S9        29.98R                  
MONROE         FAIR      66  41  39 MISG      29.97R                  
JANESVILLE     FAIR      68  39  34 S8        29.99R                  
$$
 
WIZ051-052-058>065-066-070>072-220400-
SOUTHEAST WISCONSIN
  
CITY           SKY/WX    TMP DP  RH WIND       PRES   REMARKS
MILWAUKEE      MOCLDY    60  35  39 S7        30.02R                  
WAUKESHA       FAIR      61  36  39 SE7       30.01R                  
MILWAUKEE/TIMM FAIR      61  30  31 S6        30.02R                  
RACINE         FAIR      54  37  52 S8        30.05R                  
KENOSHA        FAIR      61  39  44 S6        30.03R                  
FOND DU LAC    FAIR      64  42  44 SE13      29.96S                  
SHEBOYGAN      FAIR      58  35  42 S14       30.00R                  
WEST BEND      FAIR      63  32  31 CALM      30.00R                  
JUNEAU         FAIR      67  42  40 S16G22    29.98R                  
$$

LSZ147-162-220400-
LAKE SUPERIOR
  
STATION/POSITION TIME  TEMP    WIND        PRES    WAVE
                       AIR SEA DIR/SP/G            HT/PER
                 (UTC) (F)     (DEG/KT/KT) (MB)    (FT/S)
$$
 
LMZ867-665-643>646-220400-
LAKE MICHIGAN
  
STATION/POSITION TIME  TEMP    WIND        PRES    WAVE
                       AIR SEA DIR/SP/G            HT/PER
                 (UTC) (F)     (DEG/KT/KT) (MB)    (FT/S)
NORTHPORT PIER   0240   41     120/  2/  4 1017.6S
KEWAUNEE LAKESHO 0230   43      90/  3/  5 1015.6R
SHEBOYGAN LAKESH 0200   50     180/ 17/ 18 1015.7R
MILWAUKEE LAKESH 0230   47                   N/A
KENOSHA   LAKESH 0200   47     170/ 10/ 12 1016.3
$$

TC  - TEMPERATURE IN CELSIUS
VSB - VISIBILITY IN STATUTE MILES
WCI - WIND CHILL INDEX
HX  - HEAT INDEX